Showing default

BRO-6, 52422

Orbit data source: Space-Track

BRO-6, 52422 is a payload satellite owned by Unseen Labs (FR) in SSO that was launched on Mon, 02 May 2022 UTC via an ELECTRON launch vehicle from the Rocket Lab Launch Complex (RLLC). Payload-class satellites include a variety of spacecraft equipped with specific instruments for various scientific and technological missions. These include communications satellites like Starlink; space stations such as the ISS; scientific satellites like the Hubble; Earth observation satellites from companies like Planet Labs, Umbra, and HawkEye 360; GPS; miniature CubeSats for education and research; and military/defense satellites.

Loading next visibility...
Identifier
52422, 2022-047AE
Orbit
SSO
Country
Flag of FRFR
Related business
Manufacturer
GOMSpace
Mission
Operational Commercial Sigint
Bus & Motor
CUBESAT 6U, Unknown motor
Mass
10 kg wet, ~10 kg dry
Launch date (UTC)
2022-05-02 (3 years ago)
Launch vehicle
ELECTRON
Launch site
Rocket Lab Launch Complex (RLLC)
Object type
Payload
Rocket body
Debris
Shape & HBR
Box, 0.1 m
Radar Cross Section
0.080 m², Medium (>0.1 m² and < 1m²)

Expand to show TLE details & history
Last TLE update: 12 hours ago

TLE from 12 hours ago
0 BRO-6
1 52422U 22047AE  25260.28704145  .00009171  00000-0  24688-3 0  9995
2 52422  97.3597 343.7088 0004197 352.8489   7.2696 15.38074468189059
Epoch: 2025-09-17T06:53Z
TLE epoch observation values (Epoch: 2025-09-17T06:53:20.381Z)
Latitude
0.00004°
Longitude
-116.09129°
Altitude
452.076 km
Speed
7.643 km/s
True Right ascension
22h 54m 50s
True Declination
0° 00' 00"
Sunlit
Object was in full shadow at epoch
Visualization orbit readout
Latitude
Unknown
Longitude
Unknown
Altitude
Unknown
Speed
Unknown
Apparent Right ascension
Unknown
Apparent Declination
Unknown
Sunlit
N/A
Visualization observer readout
Local Sidereal Time
11:32:48
Azimuth
Unknown
Elevation
Unknown
Doppler factor
Unknown
Orbital elements
Apogee altitude
451.609 km
Perigee altitude
445.878 km
Semi-major axis
6,826.88 km
Eccentricity
0.00042
Inclination
97.3597°
RAAN
343.7088°
Arg. of periapsis
352.8489°
True anomaly
7.27569°
Mean anomaly
7.2696°
Eccentric anomaly
7.27264°
Mean motion
3.84778 °/min
Orbital period
93.56 mins
BSTAR
0.00024688
Loading maneuver chart data...
Computing Atmospheric mass density...

Documentation

Showing up to 5 results
|